Temp
-8 -7 -6 -6 -6 -5 -5 -5 -5 -4 -4 -4 -6 -5 -6 -5 -7 -5 -7 -6 -6 -6 -5 -5 -5 -4 -4 -4 -4 -4 -4 -5 -4 -0 1 1 1 2 1 0 1 1 2 1
-7 -7 -6 -6 -6 -5 -5 -6 -5 -5 -5 -6 -6 -6 -6 -7 -7 -7 -7 -7 -7 -7 -6 -6 -5 -5 -5 -5 -5 -5 -5 -5 -3 -1 0 1 1 1 -1 1 -0 -1 -1 1
-7 -6 -6 -6 -6 -6 -6 -6 -6 -6 -6 -7 -7 -7 -7 -8 -7 -8 -8 -8 -8 -7 -7 -6 -6 -6 -6 -6 -6 -6 -6 -6 -6 -4 -2 -4 -3 -2 -1 1 -0 0 1 -1
-7 -7 -7 -6 -6 -6 -5 -5 -7 -7 -8 -8 -8 -8 -8 -7 -8 -8 -8 -8 -8 -8 -7 -7 -6 -6 -6 -6 -6 -6 -7 -7 -6 -5 -4 -4 -4 -4 -2 -2 -2 0 1 1
-7 -7 -6 -7 -6 -6 -6 -7 -9 -8 -8 -9 -9 -9 -8 -7 -8 -8 -8 -9 -8 -7 -7 -7 -7 -7 -7 -7 -7 -7 -7 -7 -6 -5 -5 -4 -3 -2 -2 -2 -2 -1 -0 1
-7 -7 -7 -7 -6 -6 -7 -7 -8 -8 -9 -9 -8 -8 -8 -9 -9 -9 -9 -8 -8 -8 -8 -8 -8 -9 -8 -8 -8 -8 -8 -8 -7 -5 -4 -4 -3 -1 -1 -1 -1 -0 0 -2
-8 -7 -7 -7 -7 -7 -7 -7 -7 -9 -9 -8 -8 -9 -9 -9 -9 -9 -9 -9 -9 -9 -9 -9 -8 -8 -7 -7 -8 -8 -8 -8 -8 -6 -5 -4 -2 -1 -0 -0 -2 -1 -3 -4
-8 -8 -7 -8 -8 -7 -7 -7 -8 -10 -9 -8 -9 -10 -10 -10 -10 -10 -10 -9 -9 -10 -10 -9 -8 -7 -6 -6 -7 -7 -7 -7 -7 -6 -5 -5 -1 -1 -1 -1 -4 -4 -4 -4
-8 -8 -8 -8 -8 -8 -7 -7 -8 -9 -10 -10 -10 -10 -10 -10 -9 -9 -9 -10 -10 -10 -10 -10 -8 -7 -7 -6 -7 -6 -6 -6 -7 -7 -7 -4 -4 -3 -3 -3 -4 -4 -4 -4
-8 -8 -8 -8 -8 -8 -8 -8 -8 -9 -10 -11 -10 -10 -10 -10 -10 -10 -10 -10 -10 -10 -10 -10 -8 -7 -8 -7 -6 -5 -6 -6 -7 -7 -7 -5 -5 -5 -3 -2 -5 -5 -4 -4
-8 -8 -8 -8 -8 -8 -9 -9 -9 -9 -10 -10 -10 -9 -10 -10 -11 -10 -10 -10 -10 -10 -10 -9 -9 -9 -8 -7 -6 -5 -6 -6 -6 -6 -5 -5 -5 -4 -4 -6 -5 -5 -5 -5
-9 -9 -8 -9 -9 -9 -10 -10 -9 -9 -9 -9 -9 -9 -9 -9 -9 -10 -11 -11 -11 -10 -10 -10 -9 -10 -8 -8 -6 -6 -6 -6 -6 -6 -8 -7 -6 -6 -6 -5 -5 -5 -5 -5
-9 -9 -9 -9 -9 -10 -10 -12 -10 -10 -9 -9 -9 -10 -9 -9 -9 -9 -10 -11 -10 -10 -10 -10 -10 -10 -8 -8 -8 -8 -7 -7 -7 -7 -7 -7 -6 -6 -6 -6 -6 -6 -5 -6
-10 -10 -10 -10 -10 -10 -10 -11 -11 -10 -10 -10 -10 -10 -10 -10 -9 -9 -10 -9 -10 -10 -11 -11 -10 -10 -9 -8 -8 -8 -8 -8 -7 -8 -7 -7 -7 -6 -7 -7 -7 -7 -7 -7
-10 -10 -10 -10 -11 -11 -11 -11 -11 -12 -11 -10 -10 -10 -10 -10 -10 -10 -10 -10 -10 -11 -11 -11 -10 -10 -9 -9 -8 -8 -8 -8 -8 -9 -8 -8 -7 -7 -7 -7 -7 -7 -7 -7
-11 -11 -11 -11 -11 -11 -12 -11 -11 -12 -12 -11 -10 -10 -10 -10 -10 -10 -10 -10 -10 -10 -10 -10 -9 -9 -9 -9 -8 -8 -9 -9 -9 -8 -8 -8 -8 -8 -8 -8 -8 -7 -7 -7
-13 -12 -11 -11 -11 -12 -12 -12 -12 -11 -11 -11 -11 -11 -10 -10 -10 -10 -11 -11 -11 -10 -10 -9 -10 -10 -9 -9 -9 -9 -9 -9 -9 -9 -9 -9 -8 -8 -8 -8 -8 -8 -8 -8
-14 -12 -12 -12 -12 -12 -12 -12 -12 -12 -11 -12 -11 -11 -11 -10 -10 -11 -11 -11 -10 -10 -10 -10 -10 -9 -9 -9 -9 -9 -9 -9 -9 -9 -9 -9 -8 -8 -8 -8 -7 -7 -7 -7
-14 -13 -13 -12 -12 -11 -11 -12 -12 -12 -12 -12 -11 -11 -11 -10 -10 -11 -11 -11 -10 -10 -10 -9 -9 -9 -9 -8 -8 -9 -9 -10 -9 -9 -9 -9 -9 -8 -8 -8 -7 -7 -7 -7
-13 -13 -13 -12 -11 -12 -12 -12 -12 -12 -11 -11 -11 -11 -11 -10 -10 -11 -11 -10 -10 -10 -9 -9 -10 -9 -9 -9 -9 -9 -9 -9 -10 -10 -9 -9 -9 -8 -8 -8 -8 -8 -8 -8
-13 -13 -12 -12 -12 -12 -12 -11 -12 -11 -11 -11 -10 -11 -11 -10 -10 -10 -10 -10 -10 -9 -9 -9 -9 -9 -8 -9 -9 -8 -9 -9 -9 -9 -9 -9 -8 -8 -8 -8 -8 -8 -8 -8
-13 -13 -12 -12 -12 -12 -11 -12 -12 -11 -11 -11 -11 -11 -11 -10 -10 -10 -10 -10 -9 -9 -9 -9 -9 -7 -8 -8 -8 -8 -8 -8 -9 -8 -8 -8 -8 -8 -8 -9 -9 -9 -9 -10
-12 -12 -12 -12 -12 -12 -11 -12 -12 -11 -11 -10 -11 -11 -11 -10 -10 -10 -10 -9 -9 -9 -9 -8 -7 -7 -8 -8 -8 -8 -8 -8 -9 -9 -9 -8 -9 -9 -9 -9 -9 -10 -10 -11
-12 -12 -12 -11 -11 -11 -11 -10 -11 -11 -10 -10 -10 -10 -10 -10 -10 -10 -9 -9 -9 -8 -8 -8 -7 -8 -8 -8 -8 -8 -8 -8 -8 -9 -9 -9 -9 -9 -10 -10 -10 -11 -11 -12
-12 -11 -11 -11 -11 -10 -10 -10 -10 -10 -10 -10 -10 -10 -10 -10 -10 -9 -9 -9 -8 -8 -8 -7 -8 -8 -8 -8 -8 -8 -8 -9 -9 -9 -9 -10 -10 -11 -11 -11 -12 -12 -12 -13
-12 -11 -11 -11 -11 -10 -10 -10 -10 -10 -10 -10 -10 -10 -10 -9 -9 -9 -9 -9 -8 -7 -8 -8 -8 -8 -8 -9 -9 -8 -8 -9 -9 -10 -10 -11 -11 -11 -12 -12 -13 -13 -13 -14
-12 -11 -10 -10 -10 -10 -10 -10 -10 -10 -10 -10 -10 -9 -9 -9 -9 -9 -9 -9 -8 -8 -8 -8 -8 -8 -8 -8 -9 -9 -10 -10 -10 -11 -11 -11 -12 -12 -13 -13 -13 -14 -14 -14
Height
2966 2969 2974 2978 2982 2987 2990 2993 2995 2998 2999 3002 3002 3006 3005 3006 3005 3005 3007 3009 3010 3011 3011 3011 3010 3009 3010 3010 3008 3007 3006 3001 2998 2993 2992 2991 2993 2993 2995 2995 2992 2991 2988 2985
2966 2969 2974 2979 2982 2985 2989 2990 2993 2996 2996 2998 3001 3000 3002 3003 3004 3007 3008 3009 3009 3009 3009 3010 3007 3007 3008 3006 3006 3005 3003 3000 2996 2989 2988 2987 2988 2988 2989 2987 2989 2987 2992 2986
2968 2970 2974 2979 2982 2985 2987 2989 2992 2994 2994 2995 2997 2999 3001 3002 3002 3004 3005 3007 3007 3007 3007 3007 3006 3005 3005 3003 3002 3000 2999 2998 2998 2991 2985 2989 2986 2983 2982 2983 2984 2984 2985 2985
2967 2971 2974 2978 2982 2983 2986 2988 2991 2992 2994 2995 2996 2997 3001 3004 3004 3003 3005 3006 3005 3005 3006 3005 3005 3003 3001 3000 2998 2997 2997 2993 2993 2988 2984 2986 2984 2980 2978 2979 2979 2981 2983 2983
2967 2970 2974 2977 2980 2982 2985 2987 2992 2992 2993 2992 2996 2997 3001 3003 3004 3004 3005 3005 3004 3005 3004 3004 3001 3000 2998 2995 2993 2992 2990 2986 2986 2982 2982 2982 2978 2975 2976 2977 2973 2975 2979 2979
2966 2970 2974 2976 2977 2981 2983 2987 2988 2988 2991 2993 2997 2999 3000 3001 3001 3003 3003 3003 3002 3001 3001 2999 2996 2993 2989 2987 2987 2986 2988 2985 2981 2976 2980 2978 2970 2968 2972 2975 2976 2976 2974 2975
2966 2969 2972 2975 2978 2980 2983 2984 2985 2987 2991 2994 2997 2997 2997 2999 3001 3001 3000 3000 3000 3000 2995 2991 2987 2983 2981 2981 2979 2980 2981 2982 2982 2976 2978 2974 2962 2964 2966 2972 2972 2973 2973 2971
2964 2967 2970 2974 2977 2979 2981 2982 2982 2985 2989 2994 2995 2995 2997 2998 2998 2997 2997 2998 2997 2993 2991 2988 2982 2979 2977 2972 2968 2970 2975 2978 2978 2976 2975 2967 2960 2963 2965 2966 2970 2970 2969 2969
2963 2966 2970 2973 2976 2978 2979 2979 2980 2983 2987 2992 2993 2994 2995 2996 2997 2996 2996 2995 2993 2991 2989 2986 2983 2978 2973 2967 2959 2964 2971 2974 2977 2976 2975 2960 2956 2960 2962 2962 2969 2970 2970 2972
2961 2965 2968 2972 2974 2976 2977 2978 2980 2981 2986 2989 2991 2992 2993 2994 2994 2995 2995 2993 2992 2990 2988 2985 2980 2977 2973 2966 2964 2965 2969 2971 2972 2972 2971 2960 2956 2956 2958 2964 2976 2971 2971 2971
2959 2964 2967 2970 2973 2974 2976 2977 2979 2981 2984 2986 2988 2989 2991 2993 2993 2994 2993 2993 2990 2989 2987 2985 2982 2977 2973 2966 2962 2965 2968 2969 2967 2964 2958 2959 2962 2961 2962 2969 2969 2970 2969 2967
2957 2961 2965 2968 2971 2972 2975 2977 2979 2982 2984 2986 2987 2988 2989 2989 2989 2990 2990 2991 2991 2989 2988 2987 2983 2978 2971 2969 2966 2967 2968 2965 2962 2964 2964 2963 2963 2964 2966 2968 2969 2968 2968 2966
2954 2958 2962 2966 2969 2971 2974 2976 2979 2982 2984 2987 2988 2988 2989 2988 2988 2988 2989 2990 2989 2988 2988 2986 2984 2979 2976 2972 2970 2967 2965 2966 2966 2967 2968 2966 2964 2964 2964 2965 2967 2968 2968 2967
2952 2956 2961 2964 2967 2970 2973 2976 2979 2982 2984 2985 2988 2987 2988 2988 2988 2987 2987 2987 2987 2987 2987 2986 2983 2981 2979 2975 2973 2970 2971 2971 2969 2969 2969 2968 2968 2967 2966 2967 2967 2967 2968 2968
2951 2955 2958 2962 2966 2969 2972 2975 2977 2980 2985 2984 2985 2985 2985 2986 2986 2986 2985 2985 2985 2984 2985 2984 2982 2981 2980 2977 2975 2973 2972 2970 2971 2970 2970 2970 2969 2968 2969 2969 2969 2969 2969 2969
2949 2953 2957 2961 2964 2968 2971 2975 2977 2979 2981 2982 2982 2983 2982 2984 2983 2983 2983 2982 2981 2982 2982 2981 2980 2980 2981 2979 2977 2975 2973 2971 2970 2969 2968 2969 2969 2970 2971 2971 2970 2970 2970 2970
2947 2951 2955 2959 2963 2967 2971 2975 2977 2977 2980 2981 2981 2980 2979 2980 2979 2979 2980 2980 2980 2980 2980 2979 2979 2980 2980 2978 2977 2976 2975 2972 2971 2970 2970 2970 2970 2971 2972 2971 2971 2971 2970 2970
2947 2950 2954 2958 2962 2965 2969 2972 2974 2977 2978 2980 2979 2978 2977 2977 2976 2976 2976 2978 2978 2978 2978 2978 2978 2979 2978 2976 2975 2975 2974 2972 2972 2970 2970 2971 2972 2972 2972 2971 2971 2970 2970 2969
2946 2949 2953 2957 2961 2964 2968 2970 2973 2975 2979 2977 2976 2976 2976 2974 2974 2974 2975 2975 2975 2976 2975 2976 2978 2976 2976 2974 2974 2974 2973 2972 2971 2971 2971 2971 2972 2972 2971 2970 2969 2969 2968 2967
2944 2949 2953 2956 2960 2965 2968 2970 2971 2971 2971 2971 2970 2972 2973 2974 2973 2973 2975 2974 2974 2974 2973 2973 2973 2973 2972 2971 2971 2972 2972 2971 2971 2970 2970 2970 2970 2970 2969 2968 2967 2966 2966 2964
2944 2949 2954 2958 2960 2964 2966 2968 2968 2969 2969 2967 2966 2968 2970 2972 2972 2972 2973 2973 2972 2971 2971 2972 2971 2968 2969 2968 2968 2967 2968 2968 2968 2968 2968 2968 2967 2966 2965 2965 2964 2963 2963 2962
2947 2952 2955 2958 2960 2963 2965 2965 2966 2966 2966 2965 2964 2966 2969 2970 2971 2971 2971 2971 2971 2969 2969 2969 2968 2966 2966 2966 2965 2965 2965 2965 2966 2966 2966 2966 2965 2965 2964 2963 2962 2960 2959 2958
2947 2952 2955 2956 2958 2959 2959 2960 2961 2962 2961 2962 2963 2965 2967 2969 2970 2970 2970 2969 2968 2967 2966 2965 2964 2964 2964 2964 2964 2964 2963 2964 2964 2964 2963 2963 2963 2962 2961 2960 2959 2958 2957 2956
2947 2950 2952 2953 2953 2953 2955 2957 2958 2959 2960 2960 2961 2963 2965 2968 2969 2969 2968 2968 2966 2964 2963 2962 2962 2962 2962 2962 2962 2963 2963 2963 2963 2962 2961 2961 2960 2960 2959 2957 2957 2956 2955 2954
2945 2948 2949 2949 2950 2951 2952 2954 2956 2957 2959 2960 2962 2964 2965 2966 2968 2967 2967 2965 2962 2960 2958 2961 2961 2961 2961 2961 2962 2962 2962 2962 2961 2960 2959 2958 2958 2957 2957 2957 2956 2955 2955 2954
2943 2945 2946 2947 2948 2949 2951 2952 2954 2956 2958 2960 2962 2963 2964 2965 2965 2965 2964 2962 2960 2960 2960 2960 2960 2960 2960 2960 2959 2959 2958 2958 2958 2957 2957 2957 2957 2957 2956 2956 2956 2955 2954 2953
2942 2943 2945 2946 2946 2947 2948 2950 2952 2955 2958 2959 2961 2962 2962 2962 2962 2962 2961 2960 2960 2959 2959 2959 2958 2958 2958 2958 2958 2958 2957 2957 2957 2957 2957 2957 2957 2956 2956 2955 2953 2952 2951 2949
Wind_Speed
21 21 22 21 18 18 16 13 9 10 7 9 6 5 5 8 3 5 1 3 3 4 6 10 12 14 15 18 25 21 17 18 21 25 26 22 21 24 23 19 9 13 17 7
18 19 19 20 18 16 14 11 8 7 7 7 6 11 8 4 1 1 1 1 3 4 6 6 6 10 12 15 16 16 17 10 15 20 23 22 22 21 25 18 15 15 7 7
19 20 19 17 15 14 14 9 5 5 6 8 11 6 4 1 5 2 2 2 3 2 4 5 9 15 14 15 15 19 17 18 17 21 15 19 20 18 22 17 17 9 14 12
18 17 16 15 14 12 10 8 6 6 4 4 5 5 5 5 2 4 2 7 4 3 9 11 15 14 15 14 15 16 19 24 25 28 31 22 24 28 18 22 21 15 11 10
17 17 17 15 13 10 9 9 6 9 6 7 6 4 4 5 3 3 3 9 9 9 13 15 19 17 16 20 15 14 18 23 24 30 25 22 28 25 12 16 20 10 13 7
16 16 15 13 10 10 10 9 8 10 8 2 5 5 5 5 5 5 8 9 11 12 16 20 22 25 27 26 25 24 21 19 11 22 19 21 18 23 15 11 9 11 5 2
19 17 13 10 9 9 9 9 9 5 4 6 5 6 5 4 6 8 8 10 12 14 20 25 28 27 26 27 29 24 23 21 15 14 13 7 18 12 14 11 5 4 10 8
14 14 12 10 9 9 7 10 10 9 11 6 6 5 6 7 7 9 7 9 12 21 19 19 15 14 17 24 31 29 21 20 12 6 10 25 21 13 11 9 7 2 7 5
16 14 12 11 10 10 8 7 10 12 15 6 6 6 3 2 5 6 7 7 13 13 13 9 11 18 21 11 9 15 17 17 14 10 3 4 7 8 3 6 7 8 10 10
17 16 14 13 11 10 7 7 8 12 15 2 9 6 7 2 4 3 8 8 8 9 10 16 11 10 15 6 3 18 16 14 17 20 14 6 12 9 9 2 4 10 12 13
18 17 15 14 12 10 8 8 10 12 13 8 9 8 12 2 3 4 8 5 7 6 8 8 10 12 19 10 4 15 11 10 10 13 9 6 13 7 8 6 3 10 15 16
21 19 17 16 13 12 10 10 11 9 9 7 9 6 3 2 6 8 5 4 8 6 7 9 12 18 12 17 2 4 1 9 10 10 7 10 15 11 6 4 9 14 14 12
22 20 19 16 13 12 14 8 12 10 8 5 5 3 3 2 2 4 2 3 5 6 8 12 13 13 17 15 10 17 9 14 8 8 9 11 15 14 8 6 8 9 9 7
22 20 18 15 14 14 16 12 10 10 6 2 0 8 10 6 3 6 6 8 10 11 10 11 12 12 12 16 15 11 15 12 7 5 6 8 11 12 7 5 3 4 5 7
20 19 18 16 15 14 14 16 10 10 8 5 6 7 6 11 7 8 9 8 14 14 9 10 13 9 13 14 7 13 16 19 10 4 6 7 7 8 5 4 6 5 5 6
19 19 17 17 15 13 12 11 13 10 7 7 4 7 14 15 18 17 16 14 11 11 12 12 9 6 12 10 8 9 20 17 13 6 3 3 3 2 1 2 4 4 4 4
17 18 17 15 14 14 12 10 7 9 7 6 9 8 7 3 9 13 12 12 11 12 12 10 8 6 9 9 7 14 15 16 7 4 3 4 3 2 1 2 4 4 5 6
17 17 15 14 15 15 15 13 10 9 6 9 5 8 12 11 11 8 12 13 12 11 10 7 8 7 7 6 8 10 13 11 5 3 2 4 4 3 3 4 4 5 7 8
16 16 15 14 14 15 12 13 12 10 11 11 13 11 9 4 5 8 9 8 9 6 10 8 5 7 6 10 10 11 10 12 4 2 2 2 1 2 4 6 7 8 8 9
18 17 14 12 13 9 10 11 11 12 15 18 20 13 9 7 5 4 4 4 6 5 7 6 12 15 18 19 19 17 15 13 11 6 5 6 7 8 10 10 10 9 8 8
19 18 9 8 9 10 9 6 5 6 6 12 14 14 10 8 4 7 5 3 3 3 4 4 3 10 8 8 10 13 14 10 10 9 9 10 11 11 9 9 9 10 10 11
23 13 11 10 12 7 7 7 6 7 6 6 7 10 12 7 6 6 5 5 3 4 7 4 4 10 8 8 9 7 5 5 6 7 8 9 9 10 10 11 12 13 13 12
18 13 15 10 8 7 8 8 7 7 8 11 9 12 13 9 7 5 2 4 5 4 4 4 6 5 5 5 4 4 3 4 5 6 7 8 9 10 11 11 12 11 11 10
15 14 14 8 6 8 8 10 7 11 6 7 8 11 8 9 4 4 4 5 5 3 4 6 5 6 6 5 3 3 4 4 6 7 7 8 9 10 9 9 10 10 9 9
9 8 7 8 10 8 4 10 10 9 7 8 8 8 6 7 5 4 6 4 5 4 2 1 3 4 4 5 4 4 6 7 7 8 8 8 7 7 7 7 7 7 7 8
7 7 7 6 8 11 9 10 10 9 8 12 10 6 4 6 5 5 4 4 3 3 4 5 5 5 4 5 6 9 10 10 9 8 7 6 6 6 6 6 7 9 10 12
8 7 6 5 5 8 9 10 11 11 13 11 8 5 6 3 4 4 6 6 7 7 7 7 7 7 8 10 11 10 8 7 6 5 4 4 4 6 8 10 13 14 16 18
Wind_Direction
170 176 180 179 176 182 183 185 183 190 195 184 179 189 198 236 238 312 304 276 281 281 297 296 289 284 278 284 283 295 299 283 283 261 248 232 249 243 238 230 251 266 278 287
180 181 177 183 183 180 185 166 198 190 179 149 167 223 233 186 47 222 219 249 275 284 302 310 304 298 300 301 295 291 274 265 286 268 257 245 241 252 238 243 247 240 272 294
182 186 184 184 185 183 179 167 179 176 186 188 183 180 169 161 225 219 183 253 297 291 290 287 300 300 295 312 281 287 266 263 262 272 275 313 296 276 263 267 230 253 256 309
183 182 180 184 187 186 186 187 167 171 167 151 162 164 158 204 251 303 231 269 259 276 305 296 297 297 303 298 296 279 268 268 264 269 275 281 286 277 280 285 265 235 255 278
182 181 186 188 188 185 191 183 153 134 167 190 150 185 198 208 238 247 198 250 256 277 286 287 296 295 286 293 295 286 272 262 262 265 276 280 293 263 271 288 257 252 240 229
179 190 190 188 184 195 198 184 170 146 206 140 151 259 212 209 236 280 260 271 276 285 287 284 284 272 274 276 276 279 279 287 306 264 274 282 283 239 244 240 256 247 259 37
189 189 184 188 197 209 224 190 178 164 171 167 210 221 214 232 255 265 258 274 287 294 281 275 276 280 280 274 269 260 261 267 280 285 306 267 279 200 211 193 114 167 74 18
190 195 184 194 203 218 215 190 190 159 141 181 230 230 234 254 271 290 300 286 280 272 293 310 308 304 294 278 261 251 232 243 263 275 284 287 177 145 145 183 82 51 34 318
201 201 193 200 210 219 218 225 203 175 154 159 199 195 219 258 301 290 270 278 289 313 306 314 292 304 300 287 320 202 211 223 235 278 281 273 58 74 107 130 78 318 319 333
199 196 198 205 212 218 217 209 185 160 158 182 155 182 182 223 242 262 281 294 317 300 308 295 289 300 315 279 243 173 185 218 239 262 255 257 14 53 106 94 14 321 336 332
199 198 202 209 211 210 203 192 177 166 172 149 185 182 194 295 35 288 295 316 333 339 331 319 343 319 318 306 90 180 188 217 227 237 241 85 45 53 110 111 314 340 331 327
202 201 202 208 205 197 197 191 179 158 164 166 151 160 145 151 216 246 263 262 332 322 344 328 324 314 302 2 38 61 110 357 32 38 65 0 14 22 11 324 312 318 326 330
202 203 204 203 200 194 190 185 181 179 181 185 187 192 196 218 356 334 328 215 241 285 303 321 325 320 333 354 6 14 31 34 42 342 4 9 11 0 348 307 287 301 323 357
205 207 205 201 198 199 196 184 187 196 198 189 120 276 249 251 281 323 308 244 235 281 318 302 311 311 334 336 338 22 18 8 41 18 13 356 11 12 6 360 352 10 39 41
208 207 205 204 202 202 198 205 199 198 210 203 218 272 266 235 264 289 316 290 261 269 291 289 303 311 323 337 327 8 3 2 13 292 311 328 338 351 350 53 64 70 40 22
206 208 208 204 202 198 197 204 216 218 230 257 279 282 267 257 268 272 295 300 287 278 287 299 300 316 331 341 334 347 344 341 341 325 287 321 325 357 357 44 38 25 23 20
193 202 205 204 198 195 185 180 205 213 224 268 316 324 299 308 280 272 252 254 275 286 292 300 312 312 299 306 294 320 341 343 341 16 115 113 109 109 55 27 24 21 20 12
194 201 201 202 197 198 197 184 181 177 243 294 273 277 287 300 274 255 232 248 267 282 282 281 283 300 272 271 295 321 339 342 331 263 314 131 118 83 50 23 351 330 316 316
194 196 193 192 199 204 194 201 213 234 263 264 267 265 286 293 251 241 230 254 257 256 258 258 273 269 240 267 288 303 328 342 313 299 186 158 261 301 299 296 296 302 304 301
192 188 185 191 194 183 190 219 245 258 257 240 243 251 263 279 250 218 215 240 231 249 260 233 236 247 252 267 276 279 283 296 302 304 255 265 292 294 301 302 306 313 314 311
175 160 142 191 191 200 211 222 209 219 240 257 262 236 224 246 243 211 216 250 231 248 239 195 257 261 285 281 284 267 274 267 273 279 282 284 296 303 307 308 305 303 303 301
158 159 186 177 164 164 185 198 205 214 230 233 268 184 209 227 240 225 220 239 247 241 237 217 237 261 282 283 271 275 274 269 271 280 281 283 288 296 298 299 301 304 306 305
157 179 193 168 185 192 191 208 206 204 230 212 208 187 195 213 223 254 249 243 238 252 222 215 247 275 274 270 276 271 284 282 283 286 293 295 299 303 307 312 313 313 312 312
176 181 190 188 200 203 211 198 215 213 232 224 204 197 196 212 223 243 259 249 261 244 224 215 258 285 283 273 268 276 291 312 315 314 317 322 322 318 321 323 321 319 319 319
160 170 191 216 218 217 227 215 220 222 223 189 167 170 190 198 215 215 256 258 236 238 193 242 290 284 262 254 266 282 298 309 315 321 321 320 320 327 331 328 324 320 316 314
174 189 199 221 241 225 226 215 212 204 191 171 170 175 204 207 212 229 239 289 295 318 333 326 323 306 286 293 305 313 314 311 311 314 318 324 331 331 324 318 316 315 313 310
199 209 224 277 242 226 218 205 196 190 182 185 187 205 215 205 210 230 233 242 301 309 313 309 305 296 288 288 291 291 292 296 299 300 307 307 307 312 315 315 314 312 310 307